SL-14 DEB, 45283

Orbit data source: Space-Track

SL-14 DEB, 45283 is space debris in LEO originally from a launch on Thu, 15 Aug 1991 UTC launched from the Plesetsk Missile And Space Complex (PKMTR). Debris objects in space refer to the collection of defunct objects orbiting the Earth. Examples of debris include non-operational satellites, rocket bodies, and fragments generated from explosions, collisions, or faulty payload assembly.

Loading next visibility...
Identifier
45283, 1991-056V
Orbit
LEO
Country
Flag of CISCIS
Related business
Manufacturer
Unknown
Mission
Spacecraft
Bus & Motor
Unknown
Mass
Unknown
Launch date (UTC)
1991-08-15 (34 years ago)
Launch vehicle
Unknown
Launch site
Plesetsk Missile And Space Complex (PKMTR)
Object type
Payload
Rocket body
Debris
Shape & HBR
Unknown
Radar Cross Section
Small (<0.1 m²)

Expand to show TLE details & history
Last TLE update: 17 hours ago

TLE from 17 hours ago
0 SL-14 DEB
1 45283U 91056V   25260.53499353  .00003072  00000-0  11991-1 0  9993
2 45283  82.5202  78.7314 0260749 214.0999 144.3113 12.78121170259547
Epoch: 2025-09-17T12:50Z
TLE epoch observation values (Epoch: 2025-09-17T12:50:23.44Z)
Latitude
-0.00001°
Longitude
-110.57582°
Altitude
1,517.192 km
Speed
7.03 km/s
True Right ascension
05h 14m 55s
True Declination
0° 00' 00"
Sunlit
Object was in daylight at epoch
Visualization orbit readout
Latitude
Unknown
Longitude
Unknown
Altitude
Unknown
Speed
Unknown
Apparent Right ascension
Unknown
Apparent Declination
Unknown
Sunlit
N/A
Visualization observer readout
Local Sidereal Time
22:28:58
Azimuth
Unknown
Elevation
Unknown
Doppler factor
Unknown
Orbital elements
Apogee altitude
1,547.746 km
Perigee altitude
1,144.916 km
Semi-major axis
7,724.468 km
Eccentricity
0.02607
Inclination
82.5202°
RAAN
78.7314°
Arg. of periapsis
214.0999°
True anomaly
146.00917°
Mean anomaly
144.3113°
Eccentric anomaly
145.16469°
Mean motion
3.19698 °/min
Orbital period
112.61 mins
BSTAR
0.011991
Loading maneuver chart data...
Computing Atmospheric mass density...
Loading historical data...
Loading historical data...
Loading historical data...
Loading historical data...
Loading historical data...
Loading historical data...
Loading historical data...

Documentation

Showing up to 5 results
|